www.pogodaiklimat.ru

ПОГОДА в Блайте, CA

  • Прогноз погоды в Блайте
  • Монитор погоды в Блайте
  • Климат в Блайте

АРХИВ ПОГОДЫ в Блайте

Время (UTC), дата Ветер
(напр.,м/с)
 
Видим.   Явления Облачность Т
(С)
Тd
(С)
f
(%)
Тe
(С)
Тes
(С)
Комфортность

P
(гПа)

Po
(гПа)
Тmin
(С)
Tmax
(С)
R
(мм)
SD
(см)
20:52 23.06 С  16 км    ясно  +39.4  -8.3  +35  +41  очень
жарко 
1008.7  995.0         
21:52 23.06 З  16 км    ясно  +38.3  -8.3  +34  +47  очень
жарко 
1007.8  994.0         
22:52 23.06 С  4
{9} 
16 км    ясно  +40.0  -8.3  +35  +41  очень
жарко 
1007.0  993.3  +35.6  +40.0     
23:52 23.06 С  16 км    ясно  +39.4  -9.4  +35  +40  очень
жарко 
1006.6  993.0         
00:52 24.06 С  16 км    ясно  +38.9  -8.9  +34  +36  очень
жарко 
1006.6  993.0         
01:52 24.06 ЮВ  16 км    ясно  +35.6  -3.3  +32  +32  жарко  1006.6  993.0         
02:52 24.06   16 км    ясно  +33.9  -3.3  +30  +30  жарко  1007.0  993.3         
03:52 24.06 ЮЗ  16 км    ясно  +32.8  -5.6  +29  +29  жарко  1007.4  993.6         
04:52 24.06 ЮЗ  16 км    ясно  +30.0  -6.7  +26  +26  жарко  1007.3  993.6  +30.0  +40.0     
05:52 24.06 З  16 км    ясно  +31.1  -7.2  +27  +27  жарко  1007.1  993.3         
06:52 24.06 СВ  16 км    ясно  +25.0  -7.2  11  +22  +22  комфорт  1006.8  993.3         
07:52 24.06 Ю  16 км    ясно  +27.2  -3.9  13  +24  +24  комфорт  1006.7  993.0         
08:52 24.06 Ю  16 км    ясно  +26.7  -1.1  16  +24  +24  комфорт  1006.6  993.0         
09:52 24.06 СЗ  16 км    ясно  +22.2  -5.0  16  +21  +21  комфорт  1007.0  993.3         
10:52 24.06 С  16 км    ясно  +22.2  -5.0  16  +21  +21  комфорт  1007.1  993.3  +21.7  +31.7     
11:52 24.06 СЗ  16 км    ясно  +21.7  -5.6  16  +20  +20    1007.6  994.0         
12:52 24.06 С  16 км    ясно  +24.4  0.0  20  +23  +23  комфорт  1007.9  994.3         
13:52 24.06   16 км    ясно  +27.8  +2.8  20  +26  +29  жарко  1008.4  994.6         
14:52 24.06   16 км    ясно  +30.6  +2.2  16  +28  +35  жарко  1008.6  995.0         
15:52 24.06   16 км    ясно  +32.8  +2.2  14  +30  +43  жарко  1008.4  994.6         
16:52 24.06 Ю  16 км    ясно  +35.6  +1.1  11  +32  +48  жарко  1008.2  994.6  +20.6  +35.6     
17:52 24.06   16 км    ясно  +36.7  +0.6  10  +33  +58  опасность
солнечного
удара 
1007.6  994.0         
18:52 24.06 ЮВ  16 км    ясно  +38.9  +0.6  +35  +52  опасность
солнечного
удара 
1007.1  993.3         
19:52 24.06   16 км    ясно  +39.4  -7.8  +35  +64  опасность
солнечного
удара 
1006.4  992.6         
20:52 24.06   16 км    ясно  +40.0  -5.0  +36  +62  опасность
солнечного
удара 
1005.6  992.0         
21:52 24.06 ЮВ  16 км    ясно  +40.6  -2.8  +37  +42  очень
жарко 
1004.7  991.0         
22:52 24.06 Ю  16 км    ясно  +40.6  -2.2  +37  +38  очень
жарко 
1004.1  990.3  +35.6  +41.1     
23:52 24.06 Ю  16 км    ясно  +40.0  -1.7  +36  +38  очень
жарко 
1003.5  990.0         
00:52 25.06 Ю  16 км    ясно  +38.9  -0.6  +35  +36  очень
жарко 
1003.6  990.0         
01:52 25.06 Ю  16 км    ясно  +37.2  -2.2  +33  +33  жарко  1003.7  990.0         
02:52 25.06 ЮЗ  16 км    ясно  +36.1  -3.9  +32  +32  жарко  1004.0  990.3         
03:52 25.06 З  16 км    ясно  +33.9  -4.4  +30  +30  жарко  1004.8  991.0         
04:52 25.06 ЮЗ  16 км    ясно  +32.8  -1.1  11  +29  +29  жарко  1005.1  991.3  +32.8  +40.6     
05:52 25.06 ЮЗ  16 км    ясно  +32.8  -1.7  11  +29  +29  жарко  1005.0  991.3         
06:52 25.06 З  16 км    ясно  +31.7  -2.2  11  +28  +28  жарко  1005.0  991.3         
07:52 25.06 Ю  16 км    ясно  +30.6  -1.7  12  +27  +27  жарко  1004.8  991.0         
08:52 25.06 Ю  16 км    ясно  +28.3  -1.1  15  +26  +26  жарко  1004.8  991.0         
09:52 25.06 Ю  16 км    ясно  +27.2  +1.7  19  +25  +25  комфорт  1004.8  991.3         
10:52 25.06 ЮВ  16 км    ясно  +22.8  +5.6  33  +23  +23  комфорт  1005.1  991.6  +22.8  +33.3     
11:52 25.06   16 км    ясно  +22.2  +5.0  33  +23  +23  комфорт  1005.7  992.0         
12:52 25.06   16 км    ясно  +25.0  +5.0  28  +25  +25  комфорт  1006.4  992.6         
13:52 25.06 Ю  16 км    ясно  +28.3  +6.7  25  +27  +28  жарко  1007.1  993.3         
14:52 25.06 Ю  16 км    ясно  +30.0  +7.2  24  +29  +32  жарко  1007.4  993.6         
15:52 25.06 Ю  16 км    ясно  +33.3  +3.9  16  +31  +31  жарко  1007.5  993.6         
16:52 25.06 Ю  16 км    ясно  +35.0  +1.1  12  +32  +35  жарко  1007.6  994.0  +22.2  +35.0     
17:52 25.06 Ю  16 км    ясно  +36.7  -1.7  +33  +34  жарко  1007.3  993.6         
18:52 25.06 Ю  16 км    ясно  +36.7  -4.4  +32  +36  жарко  1007.4  993.6         
19:52 25.06 Ю  7
{10} 
16 км    ясно  +37.2  +2.8  12  +34  +38  очень
жарко 
1006.8  993.3         

 

Местоположение метеостанции Blythe Airport: широта 33.6192 долгота -114.7169 высота над уровнем моря 121 м.

В архиве по умолчанию представлена погода в Блайте за последние 1-2 суток. Обновление информации о фактической погоде в базе происходит ежечасно! Архивные данные за месяц целиком и за предыдущие месяцы Вы можете получить, выбрав интересующий диапазон дат из раскрывающегося списка и нажав кнопку "Ввод!".

Внимание! Архив погоды МЕТАР в базе сайта хранится не более 60 дней. Нет смысла пытаться выбрать более раннюю дату.

Внимание! Время в таблицах - всемирное. Для получения местного времени необходимо прибавить поправку, которая в Блайте равна -8 ч.

Ветер - указаны скорость ветра в м/с и направление, откуда дует ветер: С - северный, СВ - северо-восточный, В - восточный, ЮВ - юго-восточный, Ю - южный, ЮЗ - юго-западный, З - западный, СЗ - северо-западный.
Видимость - горизонтальная дальность видимости в метрах или километрах. При видимости от 1 до 10 км при отсутствии осадков обычно наблюдается дымка, при ухудшении видимости до 1 км и менее - туман. В сухую погоду видимость может ухудшаться дымом, пылью или мглою.
Атмосферные явления - указаны явления, наблюдавшиеся в указанный момент времени.
Облачность - указаны через наклонную черту верхняя и нижняя облачность в баллах и высота нижней границы облаков в метрах. Внимание: облачность, как и прочие метеорологические величины в США измеряются автоматическими метеостанциями. Указанные значения в баллах носят условный характер и показывают процент времени, в течение которого, в среднем, лазерный луч высотомера отражался от облаков обратно.
T - Температура воздуха - температура, измеренная на высоте 2 м над землей.
Td - Температура точки росы - температура, при понижении до которой содержащийся в воздухе водяной пар достигнет насыщения.
f - Относительная влажность воздуха - влажноcть воздуха, измеренная на высоте 2 м над землей.
Te - Эффективная температура - температура, которую ощущает одетый по сезону человек в тени. Характеристика душности погоды. При расчете учитывается влияние влажности воздуха и скорости ветра на теплоощущения человека.
Tes - Эффективная температура на солнце - температура, которую ощущает человек, с поправкой на солнечный нагрев. Характеристика знойности погоды. Зависит от высоты солнца над горизонтом, облачности и скорости ветра. Ночью, в пасмурную погоду, а также при ветре 12 м/с и более поправка равна нулю.
P - Атмосферное давление - приведенное к уровню моря атмосферное давление.
Po - Атмосферное давление - измеренное на уровне метеостанции атмосферное давление.
Tmin - Минимальная температура - минимум температуры воздуха на высоте 2 м над землей.
Tmax - Максимальная температура - максимум температуры воздуха на высоте 2 м над землей.
R - Количество осадков - Количество выпавших осадков за 3 или 6 часов, мм.
SD - Снежный покров - Высота снежного покрова, см.